Location: 81360 Arifat, France
(43.7204°N, 2.3408°E)
Time: 00:07:24
(UTC+02:00)

N. Korean satellite - Pass Details

Date: 08 October 2021
Orbit: 450 x 494 km, 97.3° (Epoch: 28 October)

Event Time Altitude Azimuth Distance (km) Brightness Sun altitude
Rises 07:14:37 0° 10° (N) 2,572 10.4 -8.4°
Reaches altitude 10° 07:16:42 10° 10° (N) 1,691 9.4 -8.0°
Maximum altitude 07:20:20 79° 285° (WNW) 508 6.5 -7.3°
Drops below altitude 10° 07:23:59 10° 197° (SSW) 1,688 9.2 -6.7°
Sets 07:26:03 0° 196° (SSW) 2,567 10.1 -6.3°
